Regional Weather Roundup
Issued by NWS Portland, ME

Home | Current Version | Previous Version | Text Only | Print | Product List | Glossary On
Versions: 1 2 3 4 5 6 7 8 9 10 11 12 13 14 15 16 17 18 19 20 21 22 23 24 25 26 27 28 29 30 31 32 33 34 35 36 37 38 39 40 41 42 43 44 45 46 47 48 49 50
000
ASUS41 KGYX 220205
RWRGYX
WEATHER ROUNDUP FOR MAINE AND NEW HAMPSHIRE
NATIONAL WEATHER SERVICE GRAY ME
1000 PM EDT TUE OCT 21 2014

MEZ002-005-006-010-012-015-018-020-021-024-026-027-029-220300-
MAINE

CITY           SKY/WX    TMP DP  RH WIND       PRES   REMARKS
PORTLAND       RAIN      50  48  93 N9        30.03R FOG
SANFORD        CLOUDY    48  43  81 N16       30.03R
BAR HARBOR     CLOUDY    52  52 100 NE14      30.13R
WISCASSET      RAIN      52  51  97 VRB5      30.07R FOG
ROCKLAND       CLOUDY    52  50  93 NE18G26   30.07R
FRYEBURG       HVY RAIN  46  44  93 N7        30.09R FOG
LEWISTONAUBURN CLOUDY    45  43  93 N14       30.08R
AUGUSTA        LGT RAIN  44  43  96 N12       30.10R FOG
WATERVILLE     CLOUDY    45  39  81 N14G20    30.09S
BANGOR         LGT RAIN  46  44  93 NE12      30.16R
GREENVILLE       N/A     40  38  93 NE7       30.15R
MILLINOCKET    LGT RAIN  43  38  82 N5        30.24R
HOULTON        CLOUDY    41  34  76 CALM      30.23R
PRESQUE ISLE   CLOUDY    39  30  70 CALM      30.24R
FRENCHVILLE    PTCLDY    36  27  69 N7        30.24R
CARIBOU        CLEAR     39  31  72 NE5       30.24R
$$

NHZ002-005-008-009-011-012-014-220300-
NEW HAMPSHIRE

CITY           SKY/WX    TMP DP  RH WIND       PRES   REMARKS
PORTSMOUTH     LGT RAIN  50  48  93 N14       29.99R
ROCHESTER      RAIN      48  46  93 N12       30.02R FOG
NASHUA         CLOUDY    53  51  93 NW9       30.01R
MANCHESTER     LGT RAIN  53  47  79 NW9       30.00R
CONCORD        CLOUDY    50  46  86 N6        30.03R
LACONIA        CLOUDY    48  43  81 E14       30.04R
PLYMOUTH       CLOUDY    49  49 100 CALM      30.05R
BERLIN         LGT RAIN  44  43  96 NW6       30.10R
WHITEFIELD     CLOUDY    47  42  83 E9        30.07R
JAFFREY        CLOUDY    49  48  97 VRB5      30.01R FOG
LEBANON        CLOUDY    50  45  83 NW3       30.05R
MT WASHINGTON  FRZ RAIN  32  32 100 E25         N/A  VSB 0   WCI  19
$$

VTZ005-007-008-220300-
VERMONT

CITY           SKY/WX    TMP DP  RH WIND       PRES   REMARKS
ST JOHNSBURY     N/A     47  46  97 MISG      30.06R
MONTPELIER     CLOUDY    45  45 100 NW3       30.10R
BURLINGTON     LGT RAIN  49  46  90 N7        30.08R
$$

MAZ007-012-024-CTZ003-RIZ002-NYZ038-NYZ072-220300-
SOUTHERN NEW ENGLAND AND NY

CITY           SKY/WX    TMP DP  RH WIND       PRES   REMARKS
BOSTON         CLOUDY    57  54  89 N12       29.97R
WORCESTER      CLOUDY    52  50  93 NE7       29.98R
NANTUCKET      CLEAR     57  55  93 E8        29.92R
PROVIDENCE     CLOUDY    57  55  93 N12       29.95R FOG
HARTFORD       CLOUDY    55  49  80 N9        29.95R
ALBANY         LGT RAIN  51  47  86 N7        30.00R
NEW YORK CITY  MOCLDY    59  54  83 N9        29.90R
$$

ANZ081-ANZ082-ANZ150-NHZ014-MEZ023>029-220300-
COASTAL MARINE OBSERVATIONS

STATION/POSITION TIME  TEMP    WIND        PRES    WAVE
                       AIR SEA DIR/SP/G            HT/PER
                 (UTC) (F)     (DEG/KT/KT) (MB)    (FT/S)
MATINICUS ROCK   0100           80/ 26/ 29 1016.5R
PORTLAND WX BUOY 0150   55 55   70/ 17/ 19 1015.5R   4/ 6
WELLS            0100   50 50   10/ 15/ 19 1014.8R
ISLE OF SHOALS   0100   53      10/ 17/ 18 1014.3R
JEFFREYS LEDGE   0121      56                N/A     5/ 7
CASHES LEDGE BUO 0150   57 56  110/ 21/ 27 1014.6R   5/ 6
$$

.............KEY..............
   WCI - WIND CHILL
   TC  - TEMPERATURE IN CELSIUS
   VSB - VISIBILITY IN MILES
   HX  - HEAT INDEX
   FAIR- INDICATES FEW OR NO CLOUDS BELOW 12,000 FT, WITH NO
         SIGNIFICANT WEATHER AND/OR OBSTRUCTIONS TO VISIBILITY.





USA.gov is the U.S. government's official web portal to all federal, state and local government web resources and services.